Vilo Acuna International Airport

Jump to: basic info | weather | frequencies | runways | comments

Related pages: nearby airports | nearby navaids | notams | map

Basic information (top)

Codes: CYO MUCL
Location: lon 21.616501, lat -81.545998, elev 10 ft / 3 m msl
Status: medium_airport
Scheduled airline service: yes
Links: Wikipedia Mobile

Weather (top)

Current conditions (rec'd 2014/08/02 08:05Z):

MUCL 020805Z AUTO 11004KT 27/26 Q1012

Airport forecast (rec'd 2014/08/01 18:57Z):

TAF MUCL 011700Z 0118/0124 13010KT 9000 SCT020 
      TEMPO 0118/0124 3000 TSRA SCT012CB BKN015

Frequencies (top)

Verify before use: may be inaccurate or out of date.

A/G: 340.7 MHz (CAYO LARGO RDO)
APP: 120.1 MHz (CAYO LARGO APP)
TWR: 118.5 MHz (CAYO LARGO TWR)

Runways (top)

12/30: 9,869 x 148 ft (3,008 x 45 m) — paved — lighted

Latest comments (top)

No comments yet for Vilo Acuna International Airport

More... (top)

See also NOTAMs and nearby airports and navaids, or visit the Vilo Acuna International Airport page at the main OurAirports website..